Year,Month,Day,Hour,Minute,Value (Times are PST for windspeed in km/hr)
2023,01,05,00,00,10.60
2023,01,05,00,01,11.30
2023,01,05,00,02,11.40
2023,01,05,00,03,12.60
2023,01,05,00,04,11.20
2023,01,05,00,05,12.20
2023,01,05,00,06,11.40
2023,01,05,00,07,12.30
2023,01,05,00,08,9.50
2023,01,05,00,09,9.40
2023,01,05,00,10,6.70
2023,01,05,00,11,7.40
2023,01,05,00,12,9.70
2023,01,05,00,13,9.80
2023,01,05,00,14,9.20
2023,01,05,00,15,8.40
2023,01,05,00,16,7.50
2023,01,05,00,17,7.50
2023,01,05,00,18,9.70
2023,01,05,00,19,10.70
2023,01,05,00,20,10.20
2023,01,05,00,21,9.70
2023,01,05,00,22,10.00
2023,01,05,00,23,14.20
2023,01,05,00,24,13.30
2023,01,05,00,25,12.40
2023,01,05,00,26,13.40
2023,01,05,00,27,14.20
2023,01,05,00,28,13.10
2023,01,05,00,29,12.90
2023,01,05,00,30,10.30
2023,01,05,00,31,10.50
2023,01,05,00,32,12.90
2023,01,05,00,33,9.10
2023,01,05,00,34,10.00
2023,01,05,00,35,8.60
2023,01,05,00,36,9.30
2023,01,05,00,37,11.80
2023,01,05,00,38,9.70
2023,01,05,00,39,8.60
2023,01,05,00,40,9.10
2023,01,05,00,41,10.40
2023,01,05,00,42,9.50
2023,01,05,00,43,11.00
2023,01,05,00,44,11.40
2023,01,05,00,45,10.40
2023,01,05,00,46,8.40
2023,01,05,00,47,9.80
2023,01,05,00,48,8.80
2023,01,05,00,49,8.90
2023,01,05,00,50,6.50
2023,01,05,00,51,6.30
2023,01,05,00,52,4.90
2023,01,05,00,53,5.20
2023,01,05,00,54,4.80
2023,01,05,00,55,4.90
2023,01,05,00,56,3.60
2023,01,05,00,57,4.40
2023,01,05,00,58,4.30
2023,01,05,00,59,3.70
2023,01,05,01,00,4.30
2023,01,05,01,01,4.30
2023,01,05,01,02,4.90
2023,01,05,01,03,4.90
2023,01,05,01,04,5.00
2023,01,05,01,05,4.30
2023,01,05,01,06,8.60
2023,01,05,01,07,10.00
2023,01,05,01,08,8.00
2023,01,05,01,09,7.80
2023,01,05,01,10,7.60
2023,01,05,01,11,9.90
2023,01,05,01,12,11.50
2023,01,05,01,13,9.10
2023,01,05,01,14,10.30
2023,01,05,01,15,6.90
2023,01,05,01,16,6.90
2023,01,05,01,17,8.50
2023,01,05,01,18,7.00
2023,01,05,01,19,9.20
2023,01,05,01,20,10.00
2023,01,05,01,21,9.10
2023,01,05,01,22,12.00
2023,01,05,01,23,9.70
2023,01,05,01,24,8.80
2023,01,05,01,25,10.50
2023,01,05,01,26,12.50
2023,01,05,01,27,7.70
2023,01,05,01,28,11.10
2023,01,05,01,29,12.30
2023,01,05,01,30,12.90
2023,01,05,01,31,10.10
2023,01,05,01,32,7.10
2023,01,05,01,33,5.10
2023,01,05,01,34,11.80
2023,01,05,01,35,15.80
2023,01,05,01,36,11.00
2023,01,05,01,37,11.90
2023,01,05,01,38,12.60
2023,01,05,01,39,8.30
2023,01,05,01,40,12.30
2023,01,05,01,41,12.50
2023,01,05,01,42,10.30
2023,01,05,01,43,16.10
2023,01,05,01,44,12.70
2023,01,05,01,45,10.00
2023,01,05,01,46,14.40
2023,01,05,01,47,14.30
2023,01,05,01,48,10.60
2023,01,05,01,49,14.80
2023,01,05,01,50,17.00
2023,01,05,01,51,16.60
2023,01,05,01,52,15.80
2023,01,05,01,53,15.70
2023,01,05,01,54,16.90
2023,01,05,01,55,15.40
2023,01,05,01,56,15.70
2023,01,05,01,57,14.40
2023,01,05,01,58,13.10
2023,01,05,01,59,14.40
2023,01,05,02,00,13.50
2023,01,05,02,01,12.90
2023,01,05,02,02,13.10
2023,01,05,02,03,11.70
2023,01,05,02,04,10.80
2023,01,05,02,05,7.10
2023,01,05,02,06,6.40
2023,01,05,02,07,6.40
2023,01,05,02,08,5.20
2023,01,05,02,09,6.70
2023,01,05,02,10,8.60
2023,01,05,02,11,4.70
2023,01,05,02,12,4.60
2023,01,05,02,13,4.20
2023,01,05,02,14,3.00
2023,01,05,02,15,4.80
2023,01,05,02,16,5.70
2023,01,05,02,17,6.50
2023,01,05,02,18,4.90
2023,01,05,02,19,4.90
2023,01,05,02,20,7.70
2023,01,05,02,21,5.50
2023,01,05,02,22,5.40
2023,01,05,02,23,7.40
2023,01,05,02,24,7.20
2023,01,05,02,25,5.10
2023,01,05,02,26,4.80
2023,01,05,02,27,4.80
2023,01,05,02,28,4.20
2023,01,05,02,29,4.50
2023,01,05,02,30,4.20
2023,01,05,02,31,4.30
2023,01,05,02,32,5.70
2023,01,05,02,33,6.40
2023,01,05,02,34,4.40
2023,01,05,02,35,4.90
2023,01,05,02,36,6.70
2023,01,05,02,37,5.70
2023,01,05,02,38,5.00
2023,01,05,02,39,5.20
2023,01,05,02,40,6.30
2023,01,05,02,41,6.70
2023,01,05,02,42,6.70
2023,01,05,02,43,7.40
2023,01,05,02,44,10.30
2023,01,05,02,45,7.00
2023,01,05,02,46,6.40
2023,01,05,02,47,7.90
2023,01,05,02,48,7.20
2023,01,05,02,49,7.10
2023,01,05,02,50,10.00
2023,01,05,02,51,7.80
2023,01,05,02,52,7.10
2023,01,05,02,53,6.90
2023,01,05,02,54,7.80
2023,01,05,02,55,9.90
2023,01,05,02,56,10.10
2023,01,05,02,57,11.90
2023,01,05,02,58,11.20
2023,01,05,02,59,11.20
2023,01,05,03,00,10.30
2023,01,05,03,01,9.30
2023,01,05,03,02,9.00
2023,01,05,03,03,10.00
2023,01,05,03,04,11.40
2023,01,05,03,05,10.20
2023,01,05,03,06,9.80
2023,01,05,03,07,9.40
2023,01,05,03,08,9.20
2023,01,05,03,09,10.80
2023,01,05,03,10,9.40
2023,01,05,03,11,10.30
2023,01,05,03,12,12.20
2023,01,05,03,13,12.70
2023,01,05,03,14,11.70
2023,01,05,03,15,10.30
2023,01,05,03,16,9.50
2023,01,05,03,17,10.60
2023,01,05,03,18,10.20
2023,01,05,03,19,9.70
2023,01,05,03,20,9.90
2023,01,05,03,21,9.50
2023,01,05,03,22,9.90
2023,01,05,03,23,10.80
2023,01,05,03,24,9.80
2023,01,05,03,25,10.10
2023,01,05,03,26,12.30
2023,01,05,03,27,10.50
2023,01,05,03,28,10.60
2023,01,05,03,29,11.40
2023,01,05,03,30,10.80
2023,01,05,03,31,11.50
2023,01,05,03,32,10.30
2023,01,05,03,33,9.90
2023,01,05,03,34,9.40
2023,01,05,03,35,9.60
2023,01,05,03,36,12.20
2023,01,05,03,37,12.00
2023,01,05,03,38,7.40
2023,01,05,03,39,8.50
2023,01,05,03,40,12.80
2023,01,05,03,41,13.60
2023,01,05,03,42,13.20
2023,01,05,03,43,12.50
2023,01,05,03,44,12.80
2023,01,05,03,45,14.40
2023,01,05,03,46,14.50
2023,01,05,03,47,16.30
2023,01,05,03,48,16.80
2023,01,05,03,49,17.10
2023,01,05,03,50,16.10
2023,01,05,03,51,15.40
2023,01,05,03,52,14.50
2023,01,05,03,53,13.50
2023,01,05,03,54,12.30
2023,01,05,03,55,14.30
2023,01,05,03,56,14.80
2023,01,05,03,57,11.90
2023,01,05,03,58,13.10
2023,01,05,03,59,13.70
2023,01,05,04,00,12.60
2023,01,05,04,01,12.10
2023,01,05,04,02,10.70
2023,01,05,04,03,12.50
2023,01,05,04,04,13.80
2023,01,05,04,05,13.90
2023,01,05,04,06,11.90
2023,01,05,04,07,7.00
2023,01,05,04,08,8.50
2023,01,05,04,09,7.60
2023,01,05,04,10,7.80
2023,01,05,04,11,7.30
2023,01,05,04,12,8.50
2023,01,05,04,13,10.60
2023,01,05,04,14,11.90
2023,01,05,04,15,13.10
2023,01,05,04,16,13.70
2023,01,05,04,17,15.00
2023,01,05,04,18,14.90
2023,01,05,04,19,13.30
2023,01,05,04,20,12.70
2023,01,05,04,21,14.90
2023,01,05,04,22,15.10
2023,01,05,04,23,17.00
2023,01,05,04,24,17.00
2023,01,05,04,25,18.30
2023,01,05,04,26,18.30
2023,01,05,04,27,18.60
2023,01,05,04,28,17.60
2023,01,05,04,29,17.20
2023,01,05,04,30,17.30
2023,01,05,04,31,17.40
2023,01,05,04,32,17.70
2023,01,05,04,33,17.30
2023,01,05,04,34,16.70
2023,01,05,04,35,14.10
2023,01,05,04,36,14.40
2023,01,05,04,37,15.00
2023,01,05,04,38,16.30
2023,01,05,04,39,13.60
2023,01,05,04,40,16.70
2023,01,05,04,41,16.80
2023,01,05,04,42,20.40
2023,01,05,04,43,19.90
2023,01,05,04,44,20.00
2023,01,05,04,45,17.80
2023,01,05,04,46,17.10
2023,01,05,04,47,18.30
2023,01,05,04,48,17.80
2023,01,05,04,49,17.90
2023,01,05,04,50,16.40
2023,01,05,04,51,18.10
2023,01,05,04,52,16.00
2023,01,05,04,53,19.20
2023,01,05,04,54,19.10
2023,01,05,04,55,18.60
2023,01,05,04,56,21.10
2023,01,05,04,57,19.00
2023,01,05,04,58,20.70
2023,01,05,04,59,20.40
2023,01,05,05,00,17.30
2023,01,05,05,01,21.70
2023,01,05,05,02,20.10
2023,01,05,05,03,19.50
2023,01,05,05,04,20.60
2023,01,05,05,05,19.00
2023,01,05,05,06,20.40
2023,01,05,05,07,19.00
2023,01,05,05,08,17.60
2023,01,05,05,09,19.80
2023,01,05,05,10,19.00
2023,01,05,05,11,18.00
2023,01,05,05,12,20.70
2023,01,05,05,13,20.80
2023,01,05,05,14,19.50
2023,01,05,05,15,21.90
2023,01,05,05,16,19.70
2023,01,05,05,17,18.70
2023,01,05,05,18,17.80
2023,01,05,05,19,18.90
2023,01,05,05,20,19.20
2023,01,05,05,21,18.30
2023,01,05,05,22,17.10
2023,01,05,05,23,19.90
2023,01,05,05,24,18.80
2023,01,05,05,25,17.60
2023,01,05,05,26,19.30
2023,01,05,05,27,19.20
2023,01,05,05,28,17.60
2023,01,05,05,29,16.90
2023,01,05,05,30,16.40
2023,01,05,05,31,18.30
2023,01,05,05,32,17.40
2023,01,05,05,33,16.20
2023,01,05,05,34,16.90
2023,01,05,05,35,17.50
2023,01,05,05,36,19.10
2023,01,05,05,37,17.60
2023,01,05,05,38,18.40
2023,01,05,05,39,17.30
2023,01,05,05,40,17.00
2023,01,05,05,41,17.00
2023,01,05,05,42,17.80
2023,01,05,05,43,17.10
2023,01,05,05,44,15.90
2023,01,05,05,45,15.70
2023,01,05,05,46,16.80
2023,01,05,05,47,17.00
2023,01,05,05,48,18.60
2023,01,05,05,49,18.20
2023,01,05,05,50,19.90
2023,01,05,05,51,17.20
2023,01,05,05,52,17.90
2023,01,05,05,53,17.30
2023,01,05,05,54,17.70
2023,01,05,05,55,19.10
2023,01,05,05,56,17.00
2023,01,05,05,57,16.80
2023,01,05,05,58,17.80
2023,01,05,05,59,17.80
2023,01,05,06,00,18.80
2023,01,05,06,01,18.80
2023,01,05,06,02,20.00
2023,01,05,06,03,19.80
2023,01,05,06,04,19.20
2023,01,05,06,05,19.10
2023,01,05,06,06,19.70
2023,01,05,06,07,20.50
2023,01,05,06,08,22.30
2023,01,05,06,09,23.00
2023,01,05,06,10,20.80
2023,01,05,06,11,19.60
2023,01,05,06,12,18.50
2023,01,05,06,13,22.30
2023,01,05,06,14,20.90
2023,01,05,06,15,20.60
2023,01,05,06,16,21.30
2023,01,05,06,17,21.20
2023,01,05,06,18,22.50
2023,01,05,06,19,22.30
2023,01,05,06,20,21.30
2023,01,05,06,21,25.30
2023,01,05,06,22,22.20
2023,01,05,06,23,24.00
2023,01,05,06,24,20.70
2023,01,05,06,25,22.50
2023,01,05,06,26,22.40
2023,01,05,06,27,22.20
2023,01,05,06,28,19.20
2023,01,05,06,29,19.80
2023,01,05,06,30,20.20
2023,01,05,06,31,21.50
2023,01,05,06,32,21.00
2023,01,05,06,33,21.00
2023,01,05,06,34,20.10
2023,01,05,06,35,18.60
2023,01,05,06,36,18.80
2023,01,05,06,37,20.10
2023,01,05,06,38,19.80
2023,01,05,06,39,19.80
2023,01,05,06,40,19.80
2023,01,05,06,41,19.00
2023,01,05,06,42,18.80
2023,01,05,06,43,21.00
2023,01,05,06,44,19.70
2023,01,05,06,45,19.70
2023,01,05,06,46,21.30
2023,01,05,06,47,21.10
2023,01,05,06,48,21.50
2023,01,05,06,49,21.90
2023,01,05,06,50,21.40
2023,01,05,06,51,19.50
2023,01,05,06,52,17.80
2023,01,05,06,53,19.60
2023,01,05,06,54,20.10
2023,01,05,06,55,18.90
2023,01,05,06,56,17.10
2023,01,05,06,57,20.30
2023,01,05,06,58,21.00
2023,01,05,06,59,20.00
2023,01,05,07,00,19.80
2023,01,05,07,01,18.60
2023,01,05,07,02,20.30
2023,01,05,07,03,21.80
2023,01,05,07,04,20.90
2023,01,05,07,05,21.60
2023,01,05,07,06,19.10
2023,01,05,07,07,18.70
2023,01,05,07,08,21.30
2023,01,05,07,09,21.30
2023,01,05,07,10,20.50
2023,01,05,07,11,19.00
2023,01,05,07,12,17.70
2023,01,05,07,13,16.40
2023,01,05,07,14,16.70
2023,01,05,07,15,19.20
2023,01,05,07,16,21.00
2023,01,05,07,17,21.60
2023,01,05,07,18,20.70
2023,01,05,07,19,19.80
2023,01,05,07,20,20.60
2023,01,05,07,21,19.90
2023,01,05,07,22,20.00
2023,01,05,07,23,19.20
2023,01,05,07,24,18.70
2023,01,05,07,25,14.50
2023,01,05,07,26,12.90
2023,01,05,07,27,14.10
2023,01,05,07,28,16.40
2023,01,05,07,29,15.30
2023,01,05,07,30,15.80
2023,01,05,07,31,15.10
2023,01,05,07,32,17.80
2023,01,05,07,33,19.40
2023,01,05,07,34,18.60
2023,01,05,07,35,19.10
2023,01,05,07,36,18.10
2023,01,05,07,37,18.40
2023,01,05,07,38,18.30
2023,01,05,07,39,15.40
2023,01,05,07,40,12.50
2023,01,05,07,41,12.00
2023,01,05,07,42,11.80
2023,01,05,07,43,11.30
2023,01,05,07,44,10.60
2023,01,05,07,45,10.60
2023,01,05,07,46,10.20
2023,01,05,07,47,10.50
2023,01,05,07,48,10.50
2023,01,05,07,49,11.40
2023,01,05,07,50,8.40
2023,01,05,07,51,8.60
2023,01,05,07,52,9.40
2023,01,05,07,53,10.50
2023,01,05,07,54,11.30
2023,01,05,07,55,14.50
2023,01,05,07,56,13.10
2023,01,05,07,57,10.30
2023,01,05,07,58,12.20
2023,01,05,07,59,10.70
2023,01,05,08,00,14.60
2023,01,05,08,01,12.80
2023,01,05,08,02,11.40
2023,01,05,08,03,10.30
2023,01,05,08,04,6.00
2023,01,05,08,05,6.70
2023,01,05,08,06,7.70
2023,01,05,08,07,7.60
2023,01,05,08,08,8.50
2023,01,05,08,09,9.40
2023,01,05,08,10,8.10
2023,01,05,08,11,7.80
2023,01,05,08,12,8.50
2023,01,05,08,13,12.20
2023,01,05,08,14,9.70
2023,01,05,08,15,10.00
2023,01,05,08,16,12.20
2023,01,05,08,17,9.80
2023,01,05,08,18,12.20
2023,01,05,08,19,11.90
2023,01,05,08,20,9.00
2023,01,05,08,21,8.30
2023,01,05,08,22,6.60
2023,01,05,08,23,8.60
2023,01,05,08,24,8.20
2023,01,05,08,25,10.00
2023,01,05,08,26,9.30
2023,01,05,08,27,8.60
2023,01,05,08,28,9.10
2023,01,05,08,29,9.30
2023,01,05,08,30,6.90
2023,01,05,08,31,7.50
2023,01,05,08,32,9.80
2023,01,05,08,33,9.40
2023,01,05,08,34,8.20
2023,01,05,08,35,7.30
2023,01,05,08,36,5.90
2023,01,05,08,37,7.60
2023,01,05,08,38,8.70
2023,01,05,08,39,11.90
2023,01,05,08,40,11.00
2023,01,05,08,41,11.40
2023,01,05,08,42,8.90
2023,01,05,08,43,8.80
2023,01,05,08,44,6.40
2023,01,05,08,45,6.30
2023,01,05,08,46,6.20
2023,01,05,08,47,7.20
2023,01,05,08,48,7.80
2023,01,05,08,49,5.30
2023,01,05,08,50,6.20
2023,01,05,08,51,5.70
2023,01,05,08,52,5.40
2023,01,05,08,53,6.20
2023,01,05,08,54,5.60
2023,01,05,08,55,4.80
2023,01,05,08,56,5.10
2023,01,05,08,57,5.40
2023,01,05,08,58,7.80
2023,01,05,08,59,7.90
2023,01,05,09,00,8.30
2023,01,05,09,01,8.00
2023,01,05,09,02,12.60
2023,01,05,09,03,12.50
2023,01,05,09,04,11.10
2023,01,05,09,05,9.50
2023,01,05,09,06,4.10
2023,01,05,09,07,3.70
2023,01,05,09,08,3.60
2023,01,05,09,09,4.70
2023,01,05,09,10,8.20
2023,01,05,09,11,6.30
2023,01,05,09,12,7.60
2023,01,05,09,13,9.10
2023,01,05,09,14,11.50
2023,01,05,09,15,13.00
2023,01,05,09,16,9.60
2023,01,05,09,17,9.60
2023,01,05,09,18,6.70
2023,01,05,09,19,7.80
2023,01,05,09,20,6.70
2023,01,05,09,21,5.90
2023,01,05,09,22,6.20
2023,01,05,09,23,8.60
2023,01,05,09,24,6.40
2023,01,05,09,25,3.10
2023,01,05,09,26,1.70
2023,01,05,09,27,3.40
2023,01,05,09,28,4.70
2023,01,05,09,29,3.00
2023,01,05,09,30,0.40
2023,01,05,09,31,0.10
2023,01,05,09,32,2.40
2023,01,05,09,33,2.80
2023,01,05,09,34,1.40
2023,01,05,09,35,0.20
2023,01,05,09,36,2.90
2023,01,05,09,37,2.70
2023,01,05,09,38,1.60
2023,01,05,09,39,3.00
2023,01,05,09,40,2.80
2023,01,05,09,41,1.90
2023,01,05,09,42,0.40
2023,01,05,09,43,0.00
2023,01,05,09,44,0.00
2023,01,05,09,45,0.00
2023,01,05,09,46,1.20
2023,01,05,09,47,4.00
2023,01,05,09,48,4.00
2023,01,05,09,49,3.60
2023,01,05,09,50,4.60
2023,01,05,09,51,3.40
2023,01,05,09,52,2.40
2023,01,05,09,53,1.40
2023,01,05,09,54,3.20
2023,01,05,09,55,1.80
2023,01,05,09,56,0.00
2023,01,05,09,57,0.10
2023,01,05,09,58,0.00
2023,01,05,09,59,0.00
2023,01,05,10,00,0.00
2023,01,05,10,01,0.00
2023,01,05,10,02,0.00
2023,01,05,10,03,0.00
2023,01,05,10,04,0.80
2023,01,05,10,05,0.00
2023,01,05,10,06,0.00
2023,01,05,10,07,0.40
2023,01,05,10,08,2.70
2023,01,05,10,09,3.10
2023,01,05,10,10,3.60
2023,01,05,10,11,0.50
2023,01,05,10,12,0.80
2023,01,05,10,13,0.40
2023,01,05,10,14,2.70
2023,01,05,10,15,1.10
2023,01,05,10,16,1.70
2023,01,05,10,17,0.60
2023,01,05,10,18,0.00
2023,01,05,10,19,1.00
2023,01,05,10,20,1.90
2023,01,05,10,21,1.90
2023,01,05,10,22,0.60
2023,01,05,10,23,0.30
2023,01,05,10,24,0.20
2023,01,05,10,25,0.40
2023,01,05,10,26,1.30
2023,01,05,10,27,0.00
2023,01,05,10,28,0.10
2023,01,05,10,29,2.40
2023,01,05,10,30,3.40
2023,01,05,10,31,4.10
2023,01,05,10,32,5.50
2023,01,05,10,33,5.40
2023,01,05,10,34,4.50
2023,01,05,10,35,3.60
2023,01,05,10,36,1.70
2023,01,05,10,37,0.20
2023,01,05,10,38,0.00
2023,01,05,10,39,0.00
2023,01,05,10,40,1.40
2023,01,05,10,41,0.20
2023,01,05,10,42,0.20
2023,01,05,10,43,0.00
2023,01,05,10,44,0.00
2023,01,05,10,45,0.00
2023,01,05,10,46,0.00
2023,01,05,10,47,0.00
2023,01,05,10,48,0.10
2023,01,05,10,49,0.00
2023,01,05,10,50,0.00
2023,01,05,10,51,0.00
2023,01,05,10,52,0.00
2023,01,05,10,53,0.10
2023,01,05,10,54,0.00
2023,01,05,10,55,0.00
2023,01,05,10,56,0.10
2023,01,05,10,57,1.70
2023,01,05,10,58,2.80
2023,01,05,10,59,2.20
2023,01,05,11,00,3.10
2023,01,05,11,01,3.60
2023,01,05,11,02,5.80
2023,01,05,11,03,4.50
2023,01,05,11,04,2.90
2023,01,05,11,05,2.80
2023,01,05,11,06,4.40
2023,01,05,11,07,6.80
2023,01,05,11,08,6.60
2023,01,05,11,09,4.60
2023,01,05,11,10,4.90
2023,01,05,11,11,5.20
2023,01,05,11,12,2.00
2023,01,05,11,13,1.60
2023,01,05,11,14,1.60
2023,01,05,11,15,4.50
2023,01,05,11,16,4.40
2023,01,05,11,17,3.00
2023,01,05,11,18,3.20
2023,01,05,11,19,3.10
2023,01,05,11,20,2.50
2023,01,05,11,21,0.80
2023,01,05,11,22,1.70
2023,01,05,11,23,4.30
2023,01,05,11,24,4.90
2023,01,05,11,25,3.40
2023,01,05,11,26,3.30
2023,01,05,11,27,8.50
2023,01,05,11,28,9.20
2023,01,05,11,29,6.60
2023,01,05,11,30,6.30
2023,01,05,11,31,3.90
2023,01,05,11,32,3.60
2023,01,05,11,33,2.90
2023,01,05,11,34,0.20
2023,01,05,11,35,0.70
2023,01,05,11,36,0.10
2023,01,05,11,37,1.80
2023,01,05,11,38,1.20
2023,01,05,11,39,2.60
2023,01,05,11,40,0.90
2023,01,05,11,41,3.40
2023,01,05,11,42,4.80
2023,01,05,11,43,3.20
2023,01,05,11,44,1.60
2023,01,05,11,45,4.30
2023,01,05,11,46,3.30
2023,01,05,11,47,2.90
2023,01,05,11,48,4.10
2023,01,05,11,49,1.40
2023,01,05,11,50,4.00
2023,01,05,11,51,4.50
2023,01,05,11,52,6.90
2023,01,05,11,53,6.90
2023,01,05,11,54,7.40
2023,01,05,11,55,9.70
2023,01,05,11,56,7.10
2023,01,05,11,57,7.90
2023,01,05,11,58,6.70
2023,01,05,11,59,6.60
2023,01,05,12,00,6.20
2023,01,05,12,01,5.90
2023,01,05,12,02,4.50
2023,01,05,12,03,3.70
2023,01,05,12,04,1.40
2023,01,05,12,05,2.80
2023,01,05,12,06,3.70
2023,01,05,12,07,1.70
2023,01,05,12,08,0.50
2023,01,05,12,09,2.70
2023,01,05,12,10,0.30
2023,01,05,12,11,0.40
2023,01,05,12,12,0.20
2023,01,05,12,13,0.10
2023,01,05,12,14,0.00
2023,01,05,12,15,0.00
2023,01,05,12,16,0.50
2023,01,05,12,17,0.50
2023,01,05,12,18,0.30
2023,01,05,12,19,0.90
2023,01,05,12,20,0.10
2023,01,05,12,21,0.80
2023,01,05,12,22,1.00
2023,01,05,12,23,0.30
2023,01,05,12,24,0.00
2023,01,05,12,25,1.00
2023,01,05,12,26,0.70
2023,01,05,12,27,1.00
2023,01,05,12,28,0.00
2023,01,05,12,29,0.00
2023,01,05,12,30,1.80
2023,01,05,12,31,2.30
2023,01,05,12,32,1.30
2023,01,05,12,33,0.00
2023,01,05,12,34,2.70
2023,01,05,12,35,3.80
2023,01,05,12,36,3.30
2023,01,05,12,37,5.70
2023,01,05,12,38,6.10
2023,01,05,12,39,4.20
2023,01,05,12,40,3.60
2023,01,05,12,41,3.70
2023,01,05,12,42,1.60
2023,01,05,12,43,1.10
2023,01,05,12,44,0.20
2023,01,05,12,45,0.00
2023,01,05,12,46,0.10
2023,01,05,12,47,1.10
2023,01,05,12,48,1.70
2023,01,05,12,49,2.50
2023,01,05,12,50,1.90
2023,01,05,12,51,0.40
2023,01,05,12,52,0.50
2023,01,05,12,53,3.70
2023,01,05,12,54,6.20
2023,01,05,12,55,7.70
2023,01,05,12,56,6.40
2023,01,05,12,57,1.00
2023,01,05,12,58,0.00
2023,01,05,12,59,0.00
2023,01,05,13,00,0.00
2023,01,05,13,01,2.90
2023,01,05,13,02,2.90
2023,01,05,13,03,2.40
2023,01,05,13,04,2.50
2023,01,05,13,05,0.30
2023,01,05,13,06,0.10
2023,01,05,13,07,1.40
2023,01,05,13,08,1.30
2023,01,05,13,09,2.00
2023,01,05,13,10,2.90
2023,01,05,13,11,2.30
2023,01,05,13,12,2.30
2023,01,05,13,13,0.30
2023,01,05,13,14,0.00
2023,01,05,13,15,0.00
2023,01,05,13,16,0.00
2023,01,05,13,17,0.00
2023,01,05,13,18,0.00
2023,01,05,13,19,1.30
2023,01,05,13,20,4.00
2023,01,05,13,21,4.20
2023,01,05,13,22,2.40
2023,01,05,13,23,1.30
2023,01,05,13,24,1.20
2023,01,05,13,25,0.50
2023,01,05,13,26,0.20
2023,01,05,13,27,0.40
2023,01,05,13,28,0.00
2023,01,05,13,29,1.50
2023,01,05,13,30,2.20
2023,01,05,13,31,2.80
2023,01,05,13,32,2.60
2023,01,05,13,33,0.20
2023,01,05,13,34,2.80
2023,01,05,13,35,2.30
2023,01,05,13,36,0.20
2023,01,05,13,37,2.30
2023,01,05,13,38,0.50
2023,01,05,13,39,0.40
2023,01,05,13,40,0.20
2023,01,05,13,41,1.80
2023,01,05,13,42,4.30
2023,01,05,13,43,5.10
2023,01,05,13,44,5.30
2023,01,05,13,45,4.10
2023,01,05,13,46,4.80
2023,01,05,13,47,4.80
2023,01,05,13,48,6.70
2023,01,05,13,49,6.60
2023,01,05,13,50,6.30
2023,01,05,13,51,5.50
2023,01,05,13,52,4.10
2023,01,05,13,53,3.70
2023,01,05,13,54,4.80
2023,01,05,13,55,2.70
2023,01,05,13,56,2.10
2023,01,05,13,57,3.40
2023,01,05,13,58,0.30
2023,01,05,13,59,1.60
2023,01,05,14,00,0.60
2023,01,05,14,01,1.20
2023,01,05,14,02,1.10
2023,01,05,14,03,0.40
2023,01,05,14,04,0.80
2023,01,05,14,05,1.00
2023,01,05,14,06,2.10
2023,01,05,14,07,2.60
2023,01,05,14,08,2.00
2023,01,05,14,09,2.30
2023,01,05,14,10,3.20
2023,01,05,14,11,2.90
2023,01,05,14,12,1.00
2023,01,05,14,13,1.90
2023,01,05,14,14,2.00
2023,01,05,14,15,1.90
2023,01,05,14,16,4.00
2023,01,05,14,17,3.90
2023,01,05,14,18,3.50
2023,01,05,14,19,1.40
2023,01,05,14,20,0.20
2023,01,05,14,21,1.60
2023,01,05,14,22,3.40
2023,01,05,14,23,5.00
2023,01,05,14,24,3.90
2023,01,05,14,25,5.80
2023,01,05,14,26,9.20
2023,01,05,14,27,16.60
2023,01,05,14,28,15.90
2023,01,05,14,29,19.60
2023,01,05,14,30,19.40
2023,01,05,14,31,19.10
2023,01,05,14,32,18.00
2023,01,05,14,33,19.40
2023,01,05,14,34,17.00
2023,01,05,14,35,17.90
2023,01,05,14,36,16.70
2023,01,05,14,37,19.90
2023,01,05,14,38,18.00
2023,01,05,14,39,18.30
2023,01,05,14,40,19.70
2023,01,05,14,41,21.60
2023,01,05,14,42,21.80
2023,01,05,14,43,20.90
2023,01,05,14,44,22.00
2023,01,05,14,45,22.40
2023,01,05,14,46,19.20
2023,01,05,14,47,21.90
2023,01,05,14,48,26.00
2023,01,05,14,49,25.10
2023,01,05,14,50,27.40
2023,01,05,14,51,21.60
2023,01,05,14,52,21.20
2023,01,05,14,53,27.10
2023,01,05,14,54,23.70
2023,01,05,14,55,20.30
2023,01,05,14,56,26.30
2023,01,05,14,57,21.10
2023,01,05,14,58,20.40
2023,01,05,14,59,24.00
2023,01,05,15,00,27.10
2023,01,05,15,01,31.30
2023,01,05,15,02,29.10
2023,01,05,15,03,24.30
2023,01,05,15,04,25.90
2023,01,05,15,05,24.60
2023,01,05,15,06,26.10
2023,01,05,15,07,26.00
2023,01,05,15,08,29.10
2023,01,05,15,09,25.10
2023,01,05,15,10,26.10
2023,01,05,15,11,29.40
2023,01,05,15,12,29.60
2023,01,05,15,13,27.60
2023,01,05,15,14,28.70
2023,01,05,15,15,29.20
2023,01,05,15,16,29.40
2023,01,05,15,17,33.70
2023,01,05,15,18,33.70
2023,01,05,15,19,33.40
2023,01,05,15,20,32.50
2023,01,05,15,21,34.30
2023,01,05,15,22,29.00
2023,01,05,15,23,36.10
2023,01,05,15,24,33.60
2023,01,05,15,25,31.70
2023,01,05,15,26,33.00
2023,01,05,15,27,31.80
2023,01,05,15,28,31.70
2023,01,05,15,29,39.90
2023,01,05,15,30,39.80
2023,01,05,15,31,37.10
2023,01,05,15,32,34.90
2023,01,05,15,33,30.60
2023,01,05,15,34,37.70
2023,01,05,15,35,41.10
2023,01,05,15,36,29.60
2023,01,05,15,37,34.20
2023,01,05,15,38,35.20
2023,01,05,15,39,29.30
2023,01,05,15,40,40.10
2023,01,05,15,41,33.30
2023,01,05,15,42,31.40
2023,01,05,15,43,41.80
2023,01,05,15,44,37.10
2023,01,05,15,45,30.20
2023,01,05,15,46,31.90
2023,01,05,15,47,34.50
2023,01,05,15,48,35.90
2023,01,05,15,49,33.10
2023,01,05,15,50,37.40
2023,01,05,15,51,40.80
2023,01,05,15,52,39.30
2023,01,05,15,53,39.00
2023,01,05,15,54,37.90
2023,01,05,15,55,39.20
2023,01,05,15,56,30.00
2023,01,05,15,57,33.90
2023,01,05,15,58,39.30
2023,01,05,15,59,29.50
2023,01,05,16,00,36.00
2023,01,05,16,01,34.70
2023,01,05,16,02,41.10
2023,01,05,16,03,47.80
2023,01,05,16,04,40.10
2023,01,05,16,05,34.50
2023,01,05,16,06,39.60
2023,01,05,16,07,42.20
2023,01,05,16,08,42.30
2023,01,05,16,09,38.70
2023,01,05,16,10,40.60
2023,01,05,16,11,47.10
2023,01,05,16,12,42.30
2023,01,05,16,13,47.90
2023,01,05,16,14,45.70
2023,01,05,16,15,38.20
2023,01,05,16,16,34.20
2023,01,05,16,17,32.40
2023,01,05,16,18,37.50
2023,01,05,16,19,40.40
2023,01,05,16,20,41.90
2023,01,05,16,21,38.20
2023,01,05,16,22,35.30
2023,01,05,16,23,40.50
2023,01,05,16,24,36.90
2023,01,05,16,25,41.70
2023,01,05,16,26,43.80
2023,01,05,16,27,39.00
2023,01,05,16,28,45.50
2023,01,05,16,29,45.50
2023,01,05,16,30,40.80
2023,01,05,16,31,42.60
2023,01,05,16,32,38.40
2023,01,05,16,33,47.00
2023,01,05,16,34,41.90
2023,01,05,16,35,44.30
2023,01,05,16,36,43.50
2023,01,05,16,37,45.20
2023,01,05,16,38,43.30
2023,01,05,16,39,39.80
2023,01,05,16,40,42.70
2023,01,05,16,41,39.20
2023,01,05,16,42,49.20
2023,01,05,16,43,45.60
2023,01,05,16,44,42.60
2023,01,05,16,45,44.40
2023,01,05,16,46,40.00
2023,01,05,16,47,42.80
2023,01,05,16,48,48.60
2023,01,05,16,49,46.20
2023,01,05,16,50,45.20
2023,01,05,16,51,51.40
2023,01,05,16,52,50.40
2023,01,05,16,53,50.20
2023,01,05,16,54,46.30
2023,01,05,16,55,54.70
2023,01,05,16,56,51.40
2023,01,05,16,57,52.10
2023,01,05,16,58,55.60
2023,01,05,16,59,55.70
2023,01,05,17,00,49.90
2023,01,05,17,01,41.70
2023,01,05,17,02,38.60
2023,01,05,17,03,45.40
2023,01,05,17,04,42.70
2023,01,05,17,05,39.10
2023,01,05,17,06,44.00
2023,01,05,17,07,45.80
2023,01,05,17,08,39.60
2023,01,05,17,09,41.60
2023,01,05,17,10,39.30
2023,01,05,17,11,35.10
2023,01,05,17,12,29.40
2023,01,05,17,13,32.00
2023,01,05,17,14,30.30
2023,01,05,17,15,34.70
2023,01,05,17,16,35.20
2023,01,05,17,17,36.20
2023,01,05,17,18,38.20
2023,01,05,17,19,32.00
2023,01,05,17,20,35.00
2023,01,05,17,21,37.20
2023,01,05,17,22,38.20
2023,01,05,17,23,29.00
2023,01,05,17,24,32.00
2023,01,05,17,25,29.50
2023,01,05,17,26,32.70
2023,01,05,17,27,28.90
2023,01,05,17,28,29.40
2023,01,05,17,29,30.80
2023,01,05,17,30,34.10
2023,01,05,17,31,26.00
2023,01,05,17,32,23.20
2023,01,05,17,33,27.30
2023,01,05,17,34,18.50
2023,01,05,17,35,24.10
2023,01,05,17,36,19.00
2023,01,05,17,37,22.60
2023,01,05,17,38,24.80
2023,01,05,17,39,25.00
2023,01,05,17,40,27.50
2023,01,05,17,41,27.10